Simultaneous Nadir Overpasses (SNOs) Predictions

Prediction of SNOs between AQUA and NOAA-19 Satellite Orbit:

Table of predicted SNOs for the next 14.0 days since TLE Epoch: 11/29/2019
Index Date (AQUA) Time (AQUA) Lat,Lon (AQUA) SZA (AQUA ) Date (NOAA-19) Time (NOAA-19) Lat,Lon (NOAA-19) SZA (NOAA-19 ) Distance(km) Time Diff (sec)
1 12/01/2019 10:36:19 -80.14, 169.09 76.95 12/01/2019 10:36:33 -80.13, 169.26 76.97 3.15 14
2 12/03/2019 16:10:02 80.11, -94.08 103.35 12/03/2019 16:09:55 80.12, -94.14 103.37 2.09 7
3 12/05/2019 21:43:45 -80.12, 2.42 76.33 12/05/2019 21:43:17 -80.10, 2.32 76.32 2.41 28
4 12/05/2019 22:33:12 80.12, 170.08 103.68 12/05/2019 22:34:17 80.13, 169.92 103.68 3.32 65
5 12/08/2019 03:17:28 80.09, 99.21 103.91 12/08/2019 03:16:39 80.12, 99.24 103.95 2.77 49
6 12/08/2019 04:06:55 -80.13, -93.46 76.03 12/08/2019 04:07:38 -80.12, -93.48 76.05 1.15 43
7 12/10/2019 08:51:11 -80.11,-164.35 75.83 12/10/2019 08:50:00 -80.09,-164.33 75.82 1.58 71
8 12/10/2019 09:40:38 80.10, 3.32 104.18 12/10/2019 09:41:01 80.12, 3.28 104.19 1.84 23




NCC Satellite Simultaneous Nadir Overpasses (SNOs) Prediction Service
